Погода в Усть-Ижме

Россия / Республика Коми     65°18′08″N   52°55′13″E
темп.,
°C
ветер,
м/с
пор.,
м/с
влажн.,
%
обл.,
%
осадки,
мм/ч
давл.,
гПа
погр.,
м
7 мая, пт
пт700:00−1зсз369062 0.0 1010339
03:00−1с11928 0.0 101063
06:00+1вюв237023 0.0 1011617
09:00+5юв345449 0.0 1011949
12:00+8юв4646100 0.0 10101039
15:00+5ююв4960100 0.0 1011625
18:00+4юв3874100 0.1 1010360
21:00+4вюв2681100 0.3 1010215
8 мая, сб
сб800:00+4в3784100 0.0 1009219
03:00+4в3994100 1.6 1006287
06:00+6ююв41396100 0.8 1005570
09:00+5зюз51192100 1.9 1009940
12:00+6зюз4119099 0.2 1012853
15:00+11з585667 0.3 10151677
18:00+10зюз25645 0.0 1017565
21:00+6юв22837 0.0 101825
9 мая, вс
вс900:00+5юв278688 0.0 1018130
03:00+5юв31282100 0.0 1018309
06:00+8юв41375100 0.0 1017492
09:00+11юв51360100 0.0 1015737
12:00+14ююв61249100 0.0 10131222
15:00+15ю51261100 0.4 10121400
18:00+11в1190100 0.8 101216
21:00+10юв2398100 3.9 101284
10 мая, пн
пн1000:00+12ю51384100 1.1 1011946
03:00+12ю41292100 2.0 1011796
06:00+7сз61292100 6.4 1013604
09:00+3сз41095100 11.9 1018542
12:00+7зсз4665100 0.8 10211123
15:00+10зсз464521 0.8 10231891
18:00+10ююз124723 0.0 1024133
21:00+6ю24715 0.0 102474
11 мая, вт
вт1100:00+5ююз287437 0.0 1024161
03:00+4ююз247735 0.0 102481
06:00+8юз3768100 0.0 1024287
09:00+12юз4951100 0.0 10221549
12:00+9ююз4871100 0.1 10221147
15:00+8ююз2786100 0.4 1021498
18:00+8зюз2591100 0.0 1021285
21:00+7з1396100 0.1 102199